Hourly Data Report for September 08, 2017

All times are specified in Local Standard Time (LST). Add 1 hour to adjust for Daylight Saving Time where and when it is observed.

GJOA HAVEN A
NUNAVUT

68°38'08.000" N
95°51'01.000" W
46.90 m
2302337
71597
YHK

Download Data

Hourly Data (September 2017)
Hourly Data Report for September 8, 2017
Temp Definition
°C
Dew Point Temp Definition
°C
Rel Hum Definition
%
Wind Dir Definition
10's deg

Wind Spd Definition
km/h
Visibility Definition
km
Stn Press Definition
kPa
Hmdx Definition


Wind Chill Definition


Weather Definition


TIME
00:00 Legend Double Dagger 2.8 1.6 92 7 24 16.1 99.56     LegendNANA
01:00 Legend Double Dagger 3.3 1.8 90 8 28 16.1 99.43     LegendNANA
02:00 Legend Double Dagger 3.4 1.8 89 9 34 16.1 99.35     LegendNANA
03:00 Legend Double Dagger 3.3 1.7 89 9 41 16.1 99.23     LegendNANA
04:00 Legend Double Dagger 3.3 1.7 89 8 45 16.1 99.16     LegendNANA
05:00 Legend Double Dagger 2.2 1.6 96 7 45 16.1 99.05     LegendNANA
06:00 Legend Double Dagger 1.1 0.7 97 7 55 16.1 98.92     Rain
07:00 Legend Double Dagger 0.6 0.2 97 7 48 3.2 98.82     Snow
08:00 Legend Double Dagger 0.5 0.1 97 7 55 4.8 98.60     Snow
09:00 Legend Double Dagger 0.2 -0.5 95 7 59 4.8 98.54     Rain,Fog
10:00 Legend Double Dagger 0.1 -0.6 95 7 58 4.8 98.48     Freezing Rain,Fog
11:00 Legend Double Dagger 0.0 -0.6 96 7 61 12.9 98.36   -9 Freezing Rain
12:00 Legend Double Dagger -0.2 -0.8 96 7 65 6.4 98.27   -9 Freezing Rain,Fog
13:00 Legend Double Dagger 0.2 -0.2 97 7 61 6.4 98.09     Freezing Rain,Fog
14:00 Legend Double Dagger -0.2 -0.8 96 8 76 4.8 97.91   -10 Freezing Rain,Fog
15:00 Legend Double Dagger -0.3 -0.9 96 7 54 9.7 98.21   -9 Freezing Rain,Snow
16:00 Legend Double Dagger -1.5 -1.6 99 LegendMM LegendMM 0.2 98.13     Heavy Snow
17:00 Legend Double Dagger -2.0 -2.1 99 6 59 0.4 98.17   -11 Heavy Snow
18:00 Legend Double Dagger -2.0 -2.3 98 5 67 0.8 98.13   -12 Moderate Snow
19:00 Legend Double Dagger -1.1 -1.9 94 5 54 3.2 98.26   -10 Snow
20:00 Legend Double Dagger -0.5 -1.4 94 4 46 12.9 98.43   -9 Snow
21:00 Legend Double Dagger -0.2 -1.6 90 3 41 16.1 98.55   -8 LegendNANA
22:00 Legend Double Dagger -0.3 -2.2 87 2 35 16.1 98.67   -7 LegendNANA
23:00 Legend Double Dagger -0.5 -2.2 89 1 34 16.1 98.85   -8 LegendNANA

Notes on Data Quality.

Legend

  • E = Estimated
  • M = Missing
  • NA = Not Available
  • ‡ = Partner data that is not subject to review by the National Climate Archives
Date modified: